Precipitable_Water
0.32 0.36 0.38 0.41 0.46 0.53 0.57 0.68 0.79 0.93 0.95 0.96 0.98 0.93 1.06 1.15 1.19 1.22 1.26 1.19 1.23 1.20 0.99 0.81 0.79 0.81 0.78 0.77 0.77 0.73 0.69 0.68 0.71 0.64 0.68 0.73 0.86 0.92 0.99 1.04 1.10 1.12 1.17
0.32 0.34 0.36 0.41 0.45 0.48 0.54 0.62 0.68 0.76 0.81 0.86 0.89 1.00 0.99 1.11 1.16 1.31 1.28 1.20 1.20 1.21 1.11 0.90 0.80 0.79 0.81 0.79 0.78 0.73 0.66 0.68 0.72 0.61 0.58 0.50 0.63 0.80 0.93 1.01 1.05 1.09 1.12
0.34 0.37 0.38 0.39 0.46 0.49 0.52 0.60 0.67 0.74 0.77 0.80 0.90 1.00 1.05 1.14 1.11 1.12 1.12 1.18 1.19 1.21 1.20 1.12 0.97 0.80 0.80 0.77 0.78 0.74 0.68 0.61 0.67 0.70 0.57 0.45 0.42 0.58 0.78 0.88 0.98 0.97 1.07
0.43 0.42 0.41 0.40 0.43 0.50 0.60 0.69 0.69 0.75 0.82 0.84 0.80 0.81 0.90 0.87 1.04 1.05 1.16 1.06 1.18 1.19 1.24 1.21 1.04 0.86 0.79 0.76 0.78 0.78 0.71 0.68 0.59 0.66 0.62 0.56 0.52 0.49 0.51 0.74 0.87 0.92 0.95
0.48 0.48 0.49 0.50 0.50 0.52 0.58 0.68 0.75 0.76 0.82 0.84 0.84 0.80 0.81 0.94 1.00 1.01 1.00 1.05 1.16 1.09 1.14 1.19 1.12 0.97 0.85 0.79 0.78 0.77 0.72 0.70 0.65 0.61 0.58 0.53 0.48 0.52 0.50 0.48 0.67 0.85 0.89
0.51 0.52 0.54 0.55 0.54 0.57 0.63 0.71 0.76 0.77 0.82 0.85 0.87 0.80 0.82 0.89 0.96 0.97 1.00 1.02 1.07 1.04 1.06 1.14 1.17 1.14 0.99 0.84 0.77 0.78 0.74 0.68 0.67 0.64 0.60 0.52 0.45 0.42 0.42 0.45 0.57 0.64 0.75
0.54 0.52 0.53 0.55 0.56 0.57 0.61 0.70 0.77 0.78 0.83 0.85 0.87 0.84 0.84 0.92 0.89 0.93 0.99 1.02 1.04 1.06 1.08 1.04 0.99 1.04 1.09 1.02 0.84 0.78 0.76 0.70 0.64 0.61 0.59 0.58 0.54 0.50 0.46 0.43 0.48 0.56 0.67
0.55 0.55 0.55 0.57 0.58 0.59 0.62 0.67 0.72 0.78 0.88 0.88 0.89 0.90 0.89 0.90 0.90 0.92 0.94 0.95 1.00 1.04 1.07 1.10 1.12 1.07 1.00 1.05 1.01 0.82 0.76 0.73 0.67 0.63 0.61 0.60 0.58 0.57 0.52 0.47 0.47 0.47 0.55
0.54 0.56 0.59 0.61 0.62 0.63 0.65 0.68 0.72 0.80 0.86 0.91 0.97 0.96 0.93 0.90 0.88 0.96 1.04 1.02 0.99 0.99 0.99 1.02 1.08 1.07 1.03 0.98 1.03 0.92 0.76 0.72 0.70 0.66 0.64 0.61 0.62 0.62 0.59 0.57 0.56 0.48 0.42
0.53 0.56 0.59 0.61 0.66 0.69 0.69 0.73 0.78 0.80 0.84 0.92 0.93 0.94 0.92 0.94 1.03 1.06 1.07 1.07 1.12 1.09 1.09 1.04 1.05 1.06 1.02 1.01 1.01 0.93 0.85 0.76 0.71 0.70 0.66 0.64 0.65 0.64 0.64 0.62 0.61 0.58 0.51
0.51 0.54 0.58 0.62 0.64 0.70 0.75 0.79 0.79 0.82 0.82 0.85 0.97 0.97 0.93 1.08 1.07 1.01 1.06 1.08 1.14 1.17 1.07 1.12 1.14 1.09 1.05 1.06 0.99 0.96 0.89 0.79 0.72 0.71 0.69 0.65 0.66 0.65 0.67 0.66 0.65 0.62 0.60
0.49 0.52 0.56 0.60 0.63 0.65 0.71 0.75 0.77 0.80 0.82 0.91 1.01 1.08 1.06 1.01 0.97 0.95 1.01 1.05 1.10 1.13 1.12 1.14 1.15 1.08 1.08 1.12 1.10 1.03 0.88 0.83 0.77 0.72 0.71 0.67 0.69 0.68 0.69 0.68 0.66 0.64 0.65
0.46 0.49 0.52 0.55 0.59 0.64 0.66 0.69 0.73 0.80 0.87 0.92 0.92 0.95 0.95 0.90 0.87 0.91 0.97 1.03 1.09 1.12 1.14 1.15 1.15 1.11 1.11 1.12 1.13 1.00 0.85 0.80 0.82 0.77 0.74 0.72 0.72 0.70 0.70 0.71 0.68 0.66 0.67
0.43 0.47 0.49 0.51 0.56 0.60 0.65 0.70 0.72 0.77 0.81 0.87 0.94 0.94 0.95 0.91 0.93 0.92 0.94 0.98 1.03 1.05 1.07 1.09 1.11 1.10 1.13 1.14 1.12 1.05 0.87 0.84 0.85 0.80 0.78 0.78 0.76 0.73 0.73 0.73 0.70 0.69 0.68
0.39 0.43 0.46 0.50 0.53 0.56 0.61 0.65 0.70 0.78 0.83 0.86 0.90 0.91 0.92 0.94 0.91 0.87 0.92 0.94 0.96 0.97 1.00 1.02 1.05 1.07 1.09 1.11 1.08 1.03 0.96 0.87 0.86 0.84 0.83 0.83 0.81 0.82 0.81 0.77 0.76 0.74 0.72
0.37 0.41 0.44 0.48 0.50 0.54 0.58 0.62 0.68 0.69 0.73 0.79 0.78 0.87 0.87 0.90 0.87 0.83 0.90 0.91 0.93 0.96 0.99 1.00 0.99 1.00 1.04 1.06 1.07 1.05 1.00 0.93 0.88 0.86 0.90 0.89 0.88 0.90 0.89 0.91 0.90 0.91 0.84
0.35 0.37 0.40 0.44 0.47 0.52 0.56 0.57 0.63 0.68 0.70 0.70 0.74 0.79 0.79 0.75 0.78 0.84 0.88 0.88 0.92 0.96 0.97 0.99 1.00 1.00 1.03 1.06 1.04 1.04 1.05 1.04 1.04 1.01 0.96 0.98 1.02 1.02 1.01 1.01 1.02 1.03 1.02
0.33 0.35 0.38 0.41 0.45 0.50 0.54 0.56 0.58 0.59 0.62 0.67 0.71 0.72 0.71 0.75 0.81 0.84 0.88 0.91 0.92 0.94 0.94 0.97 1.00 1.02 1.05 1.08 1.09 1.09 1.08 1.08 1.07 1.07 1.07 1.06 1.06 1.08 1.08 1.06 1.04 1.04 1.04
0.32 0.34 0.37 0.40 0.43 0.46 0.50 0.53 0.54 0.56 0.56 0.56 0.59 0.66 0.73 0.74 0.77 0.76 0.80 0.80 0.89 0.89 0.92 0.94 0.94 0.99 1.00 1.03 1.04 1.05 1.02 1.02 1.02 1.04 1.06 1.06 1.05 1.07 1.07 1.02 0.98 0.99 1.00
0.31 0.33 0.35 0.38 0.40 0.43 0.47 0.48 0.50 0.52 0.54 0.56 0.57 0.59 0.63 0.66 0.67 0.72 0.78 0.82 0.84 0.87 0.86 0.89 0.91 0.93 0.95 0.99 1.00 0.99 0.96 0.93 0.97 0.99 1.01 0.99 0.98 1.01 1.01 0.96 0.91 0.85 0.90
0.30 0.32 0.34 0.35 0.37 0.41 0.43 0.44 0.46 0.48 0.52 0.55 0.58 0.59 0.58 0.60 0.65 0.68 0.71 0.76 0.78 0.79 0.80 0.80 0.84 0.81 0.82 0.84 0.85 0.87 0.84 0.82 0.80 0.80 0.81 0.86 0.88 0.89 0.90 0.90 0.87 0.84 0.86
0.28 0.30 0.31 0.32 0.35 0.38 0.39 0.40 0.42 0.47 0.49 0.52 0.54 0.57 0.58 0.55 0.56 0.55 0.57 0.61 0.64 0.65 0.63 0.64 0.65 0.69 0.73 0.76 0.78 0.80 0.81 0.80 0.76 0.77 0.81 0.82 0.84 0.84 0.86 0.85 0.83 0.85 0.84
0.26 0.29 0.29 0.30 0.33 0.35 0.37 0.37 0.41 0.44 0.46 0.48 0.49 0.52 0.56 0.59 0.57 0.53 0.51 0.50 0.52 0.55 0.54 0.55 0.57 0.61 0.65 0.67 0.70 0.73 0.74 0.71 0.67 0.68 0.68 0.72 0.73 0.76 0.78 0.80 0.80 0.81 0.80
0.24 0.27 0.28 0.28 0.29 0.32 0.34 0.37 0.39 0.40 0.41 0.42 0.44 0.47 0.49 0.53 0.57 0.59 0.58 0.55 0.53 0.52 0.53 0.55 0.58 0.60 0.65 0.64 0.63 0.63 0.66 0.67 0.65 0.67 0.67 0.68 0.68 0.68 0.67 0.67 0.67 0.68 0.68
0.22 0.24 0.25 0.26 0.28 0.30 0.32 0.34 0.35 0.37 0.36 0.37 0.39 0.41 0.42 0.43 0.47 0.52 0.56 0.57 0.61 0.63 0.60 0.58 0.58 0.60 0.60 0.66 0.67 0.63 0.63 0.63 0.63 0.64 0.64 0.62 0.61 0.60 0.60 0.60 0.59 0.59 0.60
0.21 0.21 0.22 0.24 0.25 0.27 0.29 0.31 0.33 0.33 0.33 0.33 0.33 0.36 0.37 0.38 0.40 0.42 0.44 0.51 0.55 0.56 0.60 0.62 0.61 0.62 0.59 0.61 0.63 0.67 0.65 0.66 0.66 0.60 0.58 0.57 0.57 0.56 0.55 0.54 0.55 0.56 0.56
Wind_Speed
33 34 34 33 33 33 33 32 32 31 30 30 30 30 31 30 30 31 29 30 29 28 28 28 28 27 27 27 26 26 26 25 25 23 21 21 22 23 23 23 22 21 19
30 30 32 34 34 34 33 33 33 32 32 31 31 30 30 31 31 31 30 30 30 30 28 29 29 29 28 28 28 28 26 27 27 26 24 24 24 24 25 24 24 23 22
30 30 30 31 34 35 34 33 32 32 32 31 31 30 30 30 30 30 30 31 31 31 30 30 31 31 31 30 30 30 29 29 29 29 26 24 25 26 26 26 26 25 24
30 30 29 29 31 34 35 35 34 32 32 32 32 31 32 30 30 30 30 31 33 32 31 31 31 32 33 32 32 32 31 31 30 31 29 27 25 27 26 27 28 27 26
28 28 28 28 29 31 34 36 36 35 33 33 33 32 32 31 30 31 31 31 31 32 32 31 31 32 33 33 33 33 33 33 33 33 31 30 28 27 26 27 27 28 27
27 27 27 27 27 27 30 33 36 36 35 34 34 34 33 31 30 30 31 31 32 32 32 33 33 33 33 33 34 34 35 34 34 34 34 33 30 29 28 27 29 29 28
24 25 26 27 28 27 28 31 34 36 36 35 34 34 34 34 33 32 32 33 33 33 33 34 34 35 35 35 35 36 37 36 36 36 36 35 34 32 30 28 28 28 29
22 22 23 25 27 29 29 30 31 34 35 35 34 35 35 35 34 34 34 35 35 35 35 36 35 36 38 38 38 36 38 38 38 37 37 37 36 34 33 31 29 28 29
21 22 23 23 24 26 28 29 31 31 32 33 34 34 34 35 35 35 35 35 35 36 37 38 38 38 38 40 38 38 39 40 40 39 38 38 37 36 34 33 32 29 29
19 20 22 23 23 24 26 27 28 30 31 32 33 33 34 34 34 35 36 37 37 37 36 37 37 38 39 40 40 40 40 41 41 41 40 39 38 39 37 36 35 33 31
19 19 20 21 23 23 23 25 26 27 29 31 32 32 32 32 33 34 36 36 37 37 37 37 37 38 38 40 42 40 41 42 42 42 41 41 40 40 40 38 36 36 34
19 19 19 19 20 22 22 24 25 26 27 29 28 29 29 29 29 29 31 32 34 35 35 36 36 36 39 39 41 43 42 43 43 43 43 42 40 40 40 40 39 38 37
20 20 19 19 19 19 20 22 24 25 26 27 28 28 28 28 28 28 27 29 30 31 33 36 37 36 38 39 39 41 41 42 42 42 42 42 41 41 40 41 40 39 39
18 20 20 19 19 19 19 20 19 21 23 26 26 26 26 26 26 26 26 25 26 28 31 34 34 34 35 39 41 41 42 42 43 42 42 42 42 42 41 41 41 40 40
16 17 18 19 19 19 19 20 21 19 19 21 21 25 25 24 23 23 24 25 25 26 26 27 29 31 33 34 36 39 41 42 42 44 43 43 43 42 42 42 42 41 41
15 15 16 17 18 18 18 17 18 21 20 20 20 20 21 21 22 22 21 21 22 23 24 24 27 27 27 28 33 36 36 38 40 41 41 42 42 41 42 41 42 42 42
16 15 16 16 17 19 19 19 17 16 19 20 21 21 20 21 22 21 22 20 20 19 20 20 23 25 25 25 26 27 33 36 38 42 41 41 40 40 41 42 43 44 45
18 18 18 18 17 17 19 21 20 19 19 18 17 17 18 19 18 19 19 19 19 19 18 17 18 19 21 21 23 22 25 28 29 32 33 34 37 39 39 38 37 37 36
18 19 18 17 18 17 18 19 19 20 20 20 20 19 18 18 18 17 18 17 18 18 18 18 17 18 19 18 19 21 20 21 23 25 26 27 28 28 29 29 31 30 31
17 18 17 17 17 17 17 18 19 19 19 19 20 21 21 20 20 20 19 18 19 17 18 17 16 15 16 17 18 18 19 21 22 23 23 25 27 28 30 31 31 31 32
13 13 15 16 16 16 17 17 18 19 20 20 20 20 20 20 20 21 22 22 21 19 19 19 19 17 17 18 18 19 19 20 21 21 21 22 23 24 25 26 27 28 29
14 14 15 17 17 16 16 17 16 18 19 20 20 20 20 20 19 20 20 21 22 22 21 20 20 19 18 18 18 19 20 20 21 22 24 24 23 23 23 23 23 24 24
14 14 14 14 14 16 16 17 17 17 18 18 19 20 21 21 21 21 21 21 21 22 21 21 21 20 19 19 19 20 20 20 20 19 19 19 20 21 22 23 23 23 24
14 15 15 15 15 15 15 16 16 16 17 18 19 19 20 21 22 23 23 23 23 23 23 23 23 23 23 22 20 20 21 21 22 22 21 21 21 21 21 22 22 24 25
16 16 16 16 16 16 16 17 17 18 18 18 19 20 20 21 22 23 25 26 26 27 28 28 27 27 26 26 25 25 25 25 25 24 24 23 23 23 23 23 23 24 24
17 17 17 18 18 17 17 17 18 19 19 19 20 20 21 22 22 23 24 25 27 27 28 29 30 30 30 30 30 29 29 29 28 27 26 26 26 25 25 25 25 25 25
Wind_Direction
232 233 232 229 228 227 225 225 225 225 226 227 227 229 228 230 233 235 233 233 232 231 231 232 230 230 232 231 232 232 231 230 227 227 228 227 226 225 224 224 222 225 226
230 231 231 228 226 226 225 225 226 227 229 230 229 231 230 232 232 233 236 233 232 232 232 231 232 232 232 233 233 232 232 232 228 231 230 231 230 228 227 227 226 226 229
231 232 232 231 228 228 226 226 227 227 229 230 230 230 231 232 234 235 236 233 231 232 233 234 234 235 234 234 234 233 233 232 231 228 232 232 233 229 230 229 229 230 231
232 232 232 232 231 231 230 228 228 228 230 230 230 230 231 232 233 234 233 235 232 233 236 236 236 236 236 235 235 235 235 234 231 230 232 233 233 231 232 233 233 233 235
231 232 233 233 234 233 231 228 228 229 230 231 231 231 233 234 234 234 234 234 229 234 235 236 237 237 237 237 236 235 234 234 232 232 232 233 235 233 234 234 234 235 237
230 231 233 234 233 233 231 230 228 229 231 232 232 232 232 232 233 234 233 230 234 235 237 239 239 238 238 238 237 236 235 235 234 233 232 233 234 234 236 238 236 238 240
230 232 234 235 235 234 233 231 230 229 231 232 233 232 232 233 234 235 235 235 237 238 240 240 240 240 240 239 238 237 236 235 234 234 234 234 234 236 236 238 239 241 243
231 232 234 236 237 237 236 234 233 231 231 231 233 233 233 235 236 237 239 240 240 241 243 243 244 243 240 240 239 239 237 235 235 235 235 235 235 236 237 238 240 244 246
234 235 236 237 237 238 236 234 233 230 230 231 232 233 234 236 238 240 241 242 243 244 245 245 244 244 242 239 239 239 237 236 235 236 236 236 236 236 237 239 240 244 248
233 234 235 238 239 238 235 233 231 229 232 233 232 233 235 237 240 242 243 244 246 245 245 244 244 244 242 240 239 239 238 236 236 236 236 236 237 237 239 241 243 246 250
232 234 235 237 237 238 236 232 230 230 233 236 232 231 235 237 242 245 246 246 246 245 244 242 245 244 242 239 240 239 238 237 236 236 236 237 238 239 240 242 245 247 250
233 233 234 235 237 237 236 234 234 233 235 231 229 227 231 236 242 245 246 245 244 243 243 242 243 245 242 240 241 241 238 236 236 236 237 238 239 241 242 243 245 248 250
236 235 235 235 235 236 236 236 235 233 229 229 228 230 236 240 244 244 246 245 243 243 242 242 244 247 243 241 239 238 238 236 236 236 237 239 240 241 244 244 245 248 251
235 234 234 235 234 235 235 233 232 230 228 226 228 234 234 242 243 242 243 244 243 243 244 244 243 246 243 240 240 240 238 238 237 238 237 239 241 244 245 245 246 249 252
237 235 235 235 235 234 234 233 230 225 226 222 227 232 237 237 241 241 242 242 243 245 244 244 243 244 243 241 239 238 237 237 239 239 240 241 243 246 247 247 248 250 253
233 234 235 234 232 230 230 230 229 225 224 224 225 228 235 239 239 239 240 241 242 244 243 243 241 241 244 242 240 237 237 238 238 240 241 241 243 246 248 250 250 253 255
234 236 237 234 233 231 229 226 222 226 227 229 230 235 237 238 238 238 236 239 239 241 240 242 241 239 240 241 238 237 236 238 242 242 242 243 245 247 249 250 254 255 260
240 240 238 235 234 232 229 229 229 229 230 227 228 235 233 231 230 231 230 237 236 239 237 239 238 236 236 239 235 238 237 239 239 238 241 243 247 248 251 250 251 253 254
238 236 236 235 233 232 231 229 230 230 230 232 234 229 227 227 232 235 233 232 232 234 234 237 239 235 237 236 234 234 239 240 240 238 239 241 244 244 245 247 246 252 252
237 234 234 232 231 232 232 231 232 232 232 234 233 232 234 235 236 234 231 230 230 230 231 232 233 235 236 238 239 241 240 239 238 240 243 246 248 250 251 250 251 253 254
229 227 229 230 232 235 235 234 234 234 235 234 234 234 235 234 236 233 231 233 233 234 231 236 241 242 243 243 245 245 244 245 245 244 248 250 251 252 251 251 252 254 252
233 234 236 239 241 238 235 234 234 236 236 235 235 235 234 233 232 231 236 235 234 234 238 239 241 244 248 249 250 252 249 250 251 252 253 254 254 254 252 252 253 251 251
239 238 237 235 239 239 237 236 240 239 237 236 236 236 236 236 236 237 238 236 235 237 238 239 240 247 250 252 255 255 250 251 252 253 253 253 254 254 252 254 253 251 253
245 242 241 240 242 242 240 241 241 239 237 239 240 240 240 240 240 240 240 240 240 241 241 243 246 249 252 252 257 257 254 254 254 255 255 255 256 255 255 256 254 255 255
249 245 242 239 243 246 247 247 245 243 243 243 244 244 246 247 246 245 245 245 245 247 246 247 250 252 253 254 258 260 258 258 257 255 255 257 257 257 257 258 257 257 256
250 249 247 248 249 250 252 252 248 246 246 247 249 251 250 250 250 250 250 250 250 251 251 251 252 252 253 258 259 258 261 258 255 256 257 258 257 257 257 258 257 257 257